Change the Weather History Date:

Monday, August 25, 2014

  Actual Average Record
Temperature  
Mean Temperature 70 °F -  
Max Temperature 84 °F 78 °F 90 °F (1969)
Min Temperature 55 °F 59 °F 45 °F (1971)
Cooling Degree Days 4    
Growing Degree Days 20 (Base 50)    
Moisture  
Dew Point 61 °F    
Average Humidity 80    
Maximum Humidity 100    
Minimum Humidity 49    
Precipitation  
Precipitation 0.00 in - - ()
Sea Level Pressure  
Sea Level Pressure 30.13 in    
Wind  
Wind Speed 4 mph (ENE)    
Max Wind Speed 12 mph    
Max Gust Speed -    
Visibility 10 miles    
Events      
Averages and records for this station are not official NWS values.
T = Trace of Precipitation, MM = Missing Value Source: NWS Daily Summary

Daily Weather History Graph

Daily Weather History Graph

Search for Another Location

Airport or City:

Trip Planner

Search our weather history database for the weather conditions in past years. The results will help you decide how hot, cold, wet, or windy it might be!

Date:

Astronomy

Aug. 25, 2014 Rise Set
Actual Time 6:07 AM EDT 7:32 PM EDT
Civil Twilight 5:38 AM EDT 8:01 PM EDT
Nautical Twilight 5:03 AM EDT 8:35 PM EDT
Astronomical Twilight 4:26 AM EDT 9:12 PM EDT
Moon 6:10 AM EDT (8/25) 7:20 PM EDT (8/25)
Length of Visible Light 14h 22m
Length of Day
13h 24m
New Moon, 0% of the Moon is Illuminated
Aug 25
New Moon
Sep 2
First Quarter
Sep 8
Full
Sep 15
Last Quarter
Sep 24
New

Hourly Weather History & Observations

Time (EDT) Temp. Heat Index Dew Point Humidity Pressure Visibility Wind Dir Wind Speed Gust Speed Precip Events Conditions
12:56 AM 57.9 °F - 57.0 °F 97% 30.14 in 10.0 mi North 3.5 mph - N/A   Clear
1:56 AM 57.9 °F - 55.9 °F 93% 30.13 in 10.0 mi NNE 4.6 mph - N/A   Clear
2:56 AM 57.0 °F - 55.9 °F 96% 30.13 in 10.0 mi Calm Calm - N/A   Clear
3:56 AM 55.0 °F - 55.0 °F 100% 30.12 in 10.0 mi Calm Calm - N/A   Clear
4:56 AM 55.9 °F - 55.0 °F 97% 30.12 in 10.0 mi North 3.5 mph - N/A   Clear
5:56 AM 57.0 °F - 55.9 °F 96% 30.13 in 10.0 mi Calm Calm - N/A   Clear
6:56 AM 57.9 °F - 55.9 °F 93% 30.14 in 10.0 mi Calm Calm - N/A   Clear
7:56 AM 66.0 °F - 61.0 °F 84% 30.14 in 10.0 mi NNE 3.5 mph - N/A   Clear
8:56 AM 72.0 °F - 61.0 °F 68% 30.14 in 10.0 mi North 4.6 mph - N/A   Clear
9:56 AM 75.0 °F - 62.1 °F 64% 30.14 in 10.0 mi North 11.5 mph - N/A   Clear
10:56 AM 80.1 °F 81.7 °F 64.0 °F 58% 30.15 in 10.0 mi North 9.2 mph - N/A   Clear
11:56 AM 82.9 °F 84.0 °F 63.0 °F 51% 30.15 in 10.0 mi NE 6.9 mph - N/A   Clear
12:56 PM 84.9 °F 86.1 °F 64.0 °F 49% 30.12 in 10.0 mi NNE 6.9 mph - N/A   Clear
1:56 PM 80.1 °F 81.9 °F 64.9 °F 60% 30.12 in 10.0 mi SSW 9.2 mph - N/A   Clear
2:56 PM 77.0 °F - 64.9 °F 66% 30.11 in 10.0 mi South 9.2 mph - N/A   Partly Cloudy
3:56 PM 77.0 °F - 64.9 °F 66% 30.11 in 10.0 mi South 5.8 mph - N/A   Clear
4:56 PM 75.0 °F - 66.0 °F 73% 30.11 in 10.0 mi South 5.8 mph - N/A   Clear
5:56 PM 73.9 °F - 63.0 °F 68% 30.11 in 10.0 mi SE 6.9 mph - N/A   Clear
6:56 PM 72.0 °F - 62.1 °F 71% 30.12 in 10.0 mi SE 8.1 mph - N/A   Clear
7:56 PM 69.1 °F - 64.0 °F 84% 30.13 in 10.0 mi Calm Calm - N/A   Clear
8:56 PM 68.0 °F - 64.9 °F 90% 30.14 in 10.0 mi ESE 5.8 mph - N/A   Clear
9:56 PM 66.9 °F - 66.0 °F 97% 30.14 in 10.0 mi ESE 4.6 mph - N/A   Clear
10:56 PM 66.9 °F - 66.0 °F 97% 30.14 in 10.0 mi ESE 3.5 mph - N/A   Clear
11:56 PM 63.0 °F - 63.0 °F 100% 30.15 in 9.0 mi Calm Calm - N/A   Clear